Weather History for Crestview, FL

Change the Weather History Date:

Friday, January 11, 2013

  Actual Average Record
Temperature  
Mean Temperature 68 °F -  
Max Temperature 73 °F - - ()
Min Temperature 62 °F - - ()
Cooling Degree Days 2    
Growing Degree Days 18 (Base 50)    
Moisture  
Dew Point 65 °F    
Average Humidity 90    
Maximum Humidity 100    
Minimum Humidity 77    
Precipitation  
Precipitation 0.00 in - - ()
Sea Level Pressure  
Sea Level Pressure 30.14 in    
Wind  
Wind Speed 9 mph (SSE)    
Max Wind Speed 15 mph    
Max Gust Speed 23 mph    
Visibility 8 miles    
Events      
T = Trace of Precipitation, MM = Missing Value Source: NWS Daily Summary

Daily Weather History Graph

Daily Weather History Graph

Search for Another Location

Airport:

Trip Planner

Search our weather history database for the weather conditions in past years. The results will help you decide how hot, cold, wet, or windy it might be!

Date:

Astronomy

Jan. 11, 2013 Rise Set
Actual Time 6:44 AM CST 5:04 PM CST
Civil Twilight 6:18 AM CST 5:30 PM CST
Nautical Twilight 5:48 AM CST 5:59 PM CST
Astronomical Twilight 5:19 AM CST 6:29 PM CST
Moon 6:19 AM CST (1/11) 5:17 PM CST (1/11)
Length of Visible Light 11h 12m
Length of Day
10h 19m
Waning Crescent, 0% of the Moon is Illuminated
Jan 11
Waning Crescent
Jan 11
New
Jan 18
First Quarter
Jan 26
Full
Feb 3
Last Quarter

Hourly Weather History & Observations

Time (CST) Temp. Dew Point Humidity Pressure Visibility Wind Dir Wind Speed Gust Speed Precip Events Conditions
12:55 AM 66.6 °F 63.7 °F 90% 30.09 in 10.0 mi SE 15.0 mph 23.0 mph N/A   Scattered Clouds
1:52 AM 68.0 °F 62.6 °F 83% 30.09 in 10.0 mi SSE 8.1 mph - N/A   Light Drizzle
1:55 AM 67.6 °F 63.0 °F 85% 30.09 in 10.0 mi SSE 8.1 mph - 0.00 in   Light Drizzle
2:02 AM 68.0 °F 62.6 °F 83% 30.09 in 10.0 mi SSE 6.9 mph - N/A   Partly Cloudy
2:55 AM 66.7 °F 62.2 °F 85% 30.11 in 10.0 mi South 10.4 mph - 0.00 in   Mostly Cloudy
3:55 AM 64.9 °F 63.0 °F 93% 30.12 in 10.0 mi WSW 3.5 mph - N/A   Clear
4:55 AM 63.3 °F 63.0 °F 99% 30.11 in 9.0 mi Calm Calm - N/A   Mostly Cloudy
5:55 AM 62.2 °F 62.1 °F 99% 30.12 in 10.0 mi ESE 4.6 mph - N/A   Scattered Clouds
6:55 AM 65.5 °F 63.0 °F 92% 30.15 in 10.0 mi SSE 8.1 mph - N/A   Mostly Cloudy
7:55 AM 66.6 °F 64.4 °F 93% 30.18 in 10.0 mi SSE 6.9 mph - N/A   Partly Cloudy
8:55 AM 70.2 °F 65.8 °F 86% 30.20 in 10.0 mi SSE 9.2 mph - N/A   Mostly Cloudy
9:55 AM 70.7 °F 66.7 °F 87% 30.19 in 10.0 mi SSE 10.4 mph - N/A   Mostly Cloudy
10:42 AM 73.4 °F 66.2 °F 78% 30.18 in 10.0 mi South 13.8 mph - N/A   Mostly Cloudy
10:55 AM 73.4 °F 66.7 °F 80% 30.19 in 10.0 mi South 13.8 mph - N/A   Mostly Cloudy
11:55 AM 73.0 °F 66.6 °F 80% 30.17 in 10.0 mi South 11.5 mph - N/A   Mostly Cloudy
12:55 PM 73.0 °F 66.6 °F 80% 30.14 in 10.0 mi South 12.7 mph - N/A   Overcast
1:55 PM 73.8 °F 66.2 °F 77% 30.13 in 10.0 mi South 13.8 mph - N/A   Mostly Cloudy
2:55 PM 73.2 °F 66.7 °F 80% 30.12 in 10.0 mi South 10.4 mph - N/A   Mostly Cloudy
3:55 PM 71.8 °F 66.6 °F 84% 30.12 in 10.0 mi SSE 9.2 mph - N/A   Overcast
4:55 PM 70.5 °F 66.9 °F 88% 30.13 in 10.0 mi SSE 6.9 mph - N/A   Overcast
5:55 PM 70.0 °F 66.9 °F 90% 30.14 in 10.0 mi SSE 6.9 mph - N/A   Overcast
6:55 PM 69.3 °F 66.9 °F 92% 30.16 in 10.0 mi SE 6.9 mph - N/A   Overcast
7:55 PM 68.7 °F 66.6 °F 93% 30.16 in 10.0 mi SSE 5.8 mph - N/A   Mostly Cloudy
8:55 PM 68.2 °F 67.1 °F 96% 30.16 in 2.5 mi SSE 6.9 mph - 0.00 in   Light Drizzle
9:04 PM 68.0 °F 68.0 °F 100% 30.15 in 2.5 mi SSE 6.9 mph - N/A   Light Drizzle
9:21 PM 68.0 °F 68.0 °F 100% 30.15 in 2.0 mi SE 5.8 mph - N/A   Light Drizzle
9:55 PM 67.5 °F 67.1 °F 99% 30.15 in 1.5 mi SSE 6.9 mph - 0.00 in   Overcast
10:55 PM 66.9 °F 66.6 °F 99% 30.17 in 0.8 mi SSE 4.6 mph - N/A   Overcast
11:25 PM 66.2 °F 66.2 °F 100% 30.13 in 1.5 mi SE 5.8 mph - N/A   Overcast
11:55 PM 66.9 °F 66.6 °F 99% 30.14 in 3.0 mi SSE 8.1 mph - N/A   Overcast